Location: Seattle
(47.6064°N, 122.3308°W)
Time: 15:11:03
(UTC-08:00)

S-56A Canister/Altair - Pass Details

Date: 12 October 2022
Orbit: 638 x 2494 km, 38.9° (Epoch: 03 December)

Event Time Altitude Azimuth Distance (km) Brightness Sun altitude
Exits shadow 03:42:37 26° 148° (SSE) 2,549 10.0 -36.5°
Drops below altitude 10° 03:45:47 10° 133° (SE) 3,301 10.8 -36.1°
Sets 03:48:20 0° 127° (SE) 4,044 11.4 -35.7°
